Voltar ao catálogo

STARLINK-2426

AtivoComunicaçõesVLEO
NORAD 47836·PAYLOAD·🇺🇸 United States

Lançado Mar 11, 2021 de Cape Canaveral Space Force Station

Loading…

Próximas Passagens (próximas 24 horas)

TLE

AtualizadoSource: CelesTrak SupGP

Época: Sep 14, 2026, 21:09 UTC

1 47836C 21018BB  26257.88173611  .00024055  00000+0  77271-3 0  2576
2 47836  53.1587  84.5457 0001207  96.8351  30.3185 15.31724356    12

Acompanhe STARLINK-2426 em tempo real com AllMySat

Download on the App Store